Stations météo

réclame
Mon MeteoGroup
Arezzo, Italie (16172): Température de l'air & dewpoint: 12.06.2018 03:00:00 - 18.06.2018 03:00:00 (CEST)Arezzo, Italie (16172): Vitesse du vent: 12.06.2018 03:00:00 - 18.06.2018 03:00:00 (CEST)Arezzo, Italie (16172): Direction du vent: 12.06.2018 03:00:00 - 18.06.2018 03:00:00 (CEST)Arezzo, Italie (16172): reduced air pressure: 12.06.2018 03:00:00 - 18.06.2018 03:00:00 (CEST)Arezzo, Italie (16172): visibility: 12.06.2018 03:00:00 - 18.06.2018 03:00:00 (CEST)
Date & Time tt [°C] td [°C] ff [km/h] ff [knt] dd ppp [hPa] vv [km]
18.06.2018 03:00:00 - - - - - - -
18.06.2018 02:00:00 - - - - - - -
18.06.2018 01:00:00 - - - - - - -
18.06.2018 00:00:00 - - - - - - -
17.06.2018 23:00:00 - - - - - - -
17.06.2018 22:00:00 - - - - - - -
17.06.2018 21:00:00 - - - - - - -
17.06.2018 20:00:00 25,0 12,9 9 5 SSW 1011,8 16
17.06.2018 19:00:00 - - - - - - -
17.06.2018 18:00:00 - - - - - - -
17.06.2018 17:00:00 26,0 10,2 9 5 ESE 1011,9 16
17.06.2018 16:00:00 - - - - - - -
17.06.2018 15:00:00 - - - - - - -
17.06.2018 14:00:00 28,2 11,3 15 8 E 1012,5 18
17.06.2018 13:00:00 - - - - - - -
17.06.2018 12:00:00 - - - - - - -
17.06.2018 11:00:00 24,0 13,5 0 0 N 1013,0 15
17.06.2018 10:00:00 - - - - - - -
17.06.2018 09:00:00 - - - - - - -
17.06.2018 08:00:00 19,0 14,5 0 0 N 1012,8 16
17.06.2018 07:00:00 - - - - - - -
17.06.2018 06:00:00 - - - - - - -
17.06.2018 05:00:00 - - - - - - -
17.06.2018 04:00:00 - - - - - - -
17.06.2018 03:00:00 - - - - - - -
17.06.2018 02:00:00 - - - - - - -
17.06.2018 01:00:00 - - - - - - -
17.06.2018 00:00:00 - - - - - - -
16.06.2018 23:00:00 - - - - - - -
16.06.2018 22:00:00 - - - - - - -
16.06.2018 21:00:00 - - - - - - -
16.06.2018 20:00:00 24,0 12,6 8 4 NE 1010,4 20
16.06.2018 19:00:00 - - - - - - -
16.06.2018 18:00:00 - - - - - - -
16.06.2018 17:00:00 25,0 13,2 9 5 NNE 1010,7 20
16.06.2018 16:00:00 - - - - - - -
16.06.2018 15:00:00 - - - - - - -
16.06.2018 14:00:00 26,2 12,3 11 6 NE 1011,1 20
16.06.2018 13:00:00 - - - - - - -
16.06.2018 12:00:00 - - - - - - -
16.06.2018 11:00:00 24,0 12,0 9 5 NE 1010,8 20
16.06.2018 10:00:00 - - - - - - -
16.06.2018 09:00:00 - - - - - - -
16.06.2018 08:00:00 19,0 12,7 4 2 ENE 1011,3 20
16.06.2018 07:00:00 - - - - - - -
16.06.2018 06:00:00 - - - - - - -
16.06.2018 05:00:00 - - - - - - -
16.06.2018 04:00:00 - - - - - - -
16.06.2018 03:00:00 - - - - - - -
16.06.2018 02:00:00 - - - - - - -
16.06.2018 01:00:00 - - - - - - -
16.06.2018 00:00:00 - - - - - - -
15.06.2018 23:00:00 - - - - - - -
15.06.2018 22:00:00 - - - - - - -
15.06.2018 21:00:00 - - - - - - -
15.06.2018 20:00:00 20,6 10,4 9 5 N 1010,0 18
15.06.2018 19:00:00 - - - - - - -
15.06.2018 18:00:00 - - - - - - -
15.06.2018 17:00:00 23,0 11,1 15 8 E 1009,6 20
15.06.2018 16:00:00 - - - - - - -
15.06.2018 15:00:00 - - - - - - -
15.06.2018 14:00:00 22,2 12,2 13 7 NE 1009,7 18
15.06.2018 13:00:00 - - - - - - -
15.06.2018 12:00:00 - - - - - - -
15.06.2018 11:00:00 21,2 11,3 15 8 NNE 1009,8 17
15.06.2018 10:00:00 - - - - - - -
15.06.2018 09:00:00 - - - - - - -
15.06.2018 08:00:00 18,2 11,0 0 0 N 1009,2 16
15.06.2018 07:00:00 - - - - - - -
15.06.2018 06:00:00 - - - - - - -
15.06.2018 05:00:00 - - - - - - -
15.06.2018 04:00:00 - - - - - - -
15.06.2018 03:00:00 - - - - - - -
15.06.2018 02:00:00 - - - - - - -
15.06.2018 01:00:00 - - - - - - -
15.06.2018 00:00:00 - - - - - - -
14.06.2018 23:00:00 - - - - - - -
14.06.2018 22:00:00 - - - - - - -
14.06.2018 21:00:00 - - - - - - -
14.06.2018 20:00:00 21,4 12,5 15 8 ENE 1007,3 18
14.06.2018 19:00:00 - - - - - - -
14.06.2018 18:00:00 - - - - - - -
14.06.2018 17:00:00 23,0 13,2 15 8 NNE 1006,5 18
14.06.2018 16:00:00 - - - - - - -
14.06.2018 15:00:00 - - - - - - -
14.06.2018 14:00:00 23,6 13,5 5 3 NNE 1006,4 18
14.06.2018 13:00:00 - - - - - - -
14.06.2018 12:00:00 - - - - - - -
14.06.2018 11:00:00 21,2 13,1 15 8 E 1006,4 18
14.06.2018 10:00:00 - - - - - - -
14.06.2018 09:00:00 - - - - - - -
14.06.2018 08:00:00 17,2 15,4 4 2 N 1006,6 15
14.06.2018 07:00:00 - - - - - - -
14.06.2018 06:00:00 - - - - - - -
14.06.2018 05:00:00 - - - - - - -
14.06.2018 04:00:00 - - - - - - -
14.06.2018 03:00:00 - - - - - - -
14.06.2018 02:00:00 - - - - - - -
14.06.2018 01:00:00 - - - - - - -
14.06.2018 00:00:00 - - - - - - -
13.06.2018 23:00:00 - - - - - - -
13.06.2018 22:00:00 - - - - - - -
13.06.2018 21:00:00 - - - - - - -
13.06.2018 20:00:00 20,2 14,6 0 0 N 1004,7 20
13.06.2018 19:00:00 - - - - - - -
13.06.2018 18:00:00 - - - - - - -
13.06.2018 17:00:00 19,0 15,5 5 3 S 1005,2 20
13.06.2018 16:00:00 - - - - - - -
13.06.2018 15:00:00 - - - - - - -
13.06.2018 14:00:00 22,6 14,4 15 8 S 1005,5 20
13.06.2018 13:00:00 - - - - - - -
13.06.2018 12:00:00 - - - - - - -
13.06.2018 11:00:00 20,0 14,4 5 3 S 1007,0 20
13.06.2018 10:00:00 - - - - - - -
13.06.2018 09:00:00 - - - - - - -
13.06.2018 08:00:00 17,0 15,4 5 3 SSW 1007,2 15
13.06.2018 07:00:00 - - - - - - -
13.06.2018 06:00:00 - - - - - - -
13.06.2018 05:00:00 - - - - - - -
13.06.2018 04:00:00 - - - - - - -
13.06.2018 03:00:00 - - - - - - -
13.06.2018 02:00:00 - - - - - - -
13.06.2018 01:00:00 - - - - - - -
13.06.2018 00:00:00 - - - - - - -
12.06.2018 23:00:00 - - - - - - -
12.06.2018 22:00:00 - - - - - - -
12.06.2018 21:00:00 - - - - - - -
12.06.2018 20:00:00 21,2 16,2 8 4 W 1006,9 14
12.06.2018 19:00:00 - - - - - - -
12.06.2018 18:00:00 - - - - - - -
12.06.2018 17:00:00 24,0 17,3 11 6 W 1006,8 12
12.06.2018 16:00:00 - - - - - - -
12.06.2018 15:00:00 - - - - - - -
12.06.2018 14:00:00 25,4 15,1 9 5 SSW 1008,0 13
12.06.2018 13:00:00 - - - - - - -
12.06.2018 12:00:00 - - - - - - -
12.06.2018 11:00:00 24,4 11,4 11 6 W 1008,5 16
12.06.2018 10:00:00 - - - - - - -
12.06.2018 09:00:00 - - - - - - -
12.06.2018 08:00:00 19,0 15,9 0 0 N 1009,3 14
12.06.2018 07:00:00 - - - - - - -
12.06.2018 06:00:00 - - - - - - -
12.06.2018 05:00:00 - - - - - - -
12.06.2018 04:00:00 - - - - - - -
12.06.2018 03:00:00 - - - - - - -

tt = Température de l'air
td = dewpoint
ff = Vitesse du vent
dd = Direction du vent
ppp = reduced air pressure
vv = visibility

stations d'obs. à proximité